Regional Weather Roundup
Issued by NWS Lake Charles, LA

Home | Current Version | Previous Version | Text Only | Print | Product List | Glossary On
Versions: 1 2 3 4 5 6 7 8 9 10 11 12 13 14 15 16 17 18 19 20 21 22 23 24 25 26 27
000
ASUS44 KLCH 242310
RWRLCH
REGIONAL WEATHER ROUNDUP
NATIONAL WEATHER SERVICE LAKE CHARLES LA
600 PM CDT TUE MAY 24 2016

Note: "fair" indicates few or no clouds below 12,000 feet with no
significant weather and/or obstructions to visibility.


ACROSS SOUTHEAST TEXAS

CITY           SKY/WX    TMP DP  RH WIND       PRES   REMARKS
BEAUMONT       CLOUDY    82  75  79 SE15      30.00S
BEAUMONT CITY  MOCLDY    85  74  69 SE14      30.00S
ORANGE         CLOUDY    84  73  70 S8        30.02S
JASPER         MOSUNNY   84  72  66 SE9       30.00F
$$

ACROSS CENTRAL LOUISIANA

CITY           SKY/WX    TMP DP  RH WIND       PRES   REMARKS
LEESVILLE      PTSUNNY   86  72  61 S14       29.99F
FULLERTON      CLOUDY    86  69  56 VRB5      29.97F
ALEXANDRIA INT SUNNY     86  69  56 S10       29.98S
ESLER FIELD    SUNNY     90  70  51 SE6       30.00F
DERIDDER       FAIR      85  72  65 S10G17    30.02F
OAKDALE        PTCLDY    85  71  63 SE6       30.01S
OPELOUSAS      FAIR      86  70  58 S10       30.02S
$$

ACROSS SOUTHWEST AND SOUTH CENTRAL LOUISIANA

CITY           SKY/WX    TMP DP  RH WIND       PRES   REMARKS
SULPHUR        CLEAR     85  74  68 SE16      30.02S
LAKE CHARLES   MOSUNNY   83  73  72 S9        30.01S
CHENNAULT INT  PTSUNNY   84  73  70 S13       30.01S
CAMERON PHI    MOCLDY    81  77  89 SE14      30.05R
DEQUINCY       FAIR      86  73  65 S10       30.01S
JENNINGS       MOCLDY    84  73  70 SE10      30.02S
LAFAYETTE      MOSUNNY   87  71  58 S13       30.03S
NEW IBERIA     SUNNY     85  72  65 S14       30.04S
ABBEVILLE      FAIR      83  73  71 SE10G17   30.03S
PATTERSON      MOSUNNY   84  73  69 SE12      30.05S
SALT POINT       N/A     83  75  77 SE12G17   30.03S
$$

SELECTED SITES ACROSS THE REGION

CITY           SKY/WX    TMP DP  RH WIND       PRES   REMARKS
HOUSTON BUSH   PTSUNNY   82  74  76 SE22G28   29.95F
HOUSTON HOBBY  PTSUNNY   85  73  67 SE10G23   29.95F
GALVESTON      MOSUNNY   82  78  88 E14       29.98F
COLLEGE STAT   MOSUNNY   86  74  67 SE14G23   29.92S
CONROE         PTSUNNY   84  73  69 SE14G22   29.95F
HUNTSVILLE     MOSUNNY   88  73  61 VRB7      29.94F
LUFKIN         MOSUNNY   85  73  67 S12       29.95F
SHREVEPORT     MOSUNNY   87  72  60 SE14      29.95F
MONROE         MOSUNNY   87  67  51 S7        30.00S
NATCHEZ MS     MOSUNNY   86  64  48 SE9       30.03S
BATON ROUGE    MOSUNNY   86  70  58 SE9       30.03S
N.O. INTL ARPT MOSUNNY   85  71  63 S15       30.05F
SLIDELL        SUNNY     82  69  64 SE9       30.07S
$$

MARINE REPORTS

STATION/POSITION TIME  SKY/WX   TEMP    WIND        PRES    VSBY
                                AIR SEA DIR/SP/G
                 (UTC)          (F)     (DEG/KT/KT) (MB)    (MI)
BUOY 30 S HIGH I 2150            80 80  110/ 14/ 16 1015.0
WVE H/P(F/S)=  3/ 6

SEA RIM ST PARK  2200            80     120/ 11/ 13 1016.7F
PORT ARTHUR      2200               78  130/  7/ 12 1016.4F
SABINE PASS N    2200            80                   N/A
TEXAS POINT      NOT AVBL
CALCASIEU PASS   2200            81                   N/A
LK CHARLES BEACH 2200            86                   N/A
MARSH ISLAND     2200            80                   N/A
FRESH WATER LOCK 2200            81                   N/A
AMERADA PASS     2200            81                   N/A
$$




USA.gov is the U.S. government's official web portal to all federal, state and local government web resources and services.